Skip Page Navigation
NASA JPL Caltech
NASA Logo - Jet Propulsion Laboratory + View the NASA Portal
+ Near-Earth Object (NEO) Program
Search JPL
JPL Home Earth Solar System Stars & Galaxies Technology
JPL Solar System Dynamics
BODIES ORBITS EPHEMERIDES TOOLS PHYSICAL DATA DISCOVERY FAQ SITE MAP
JPL Small-Body Database Browser
Search: [ help ]  
31196 Yulong (1997 YL18)
Classification: Main-belt Asteroid          SPK-ID: 2031196
Ephemeris | Orbit Diagram | Orbital Elements | Physical Parameters | Discovery Circumstances | Close-Approach Data ]

[ show orbit diagram ]
Orbital Elements at Epoch 2457000.5 (2014-Dec-09.0) TDB
Reference: JPL 13 (heliocentric ecliptic J2000)
 Element Value Uncertainty (1-sigma)   Units 
e .1508973029994007 6.0893e-08  
a 2.623306216061441 2.203e-08 AU
q 2.227456383116206 1.6445e-07 AU
i 1.125893394639582 7.6264e-06 deg
node 183.9209498803656 0.00025856 deg
peri 305.4187404455386 0.0002602 deg
M 327.2941661246131 2.5128e-05 deg
tp 2457141.492053225828
(2015-Apr-28.99205323)
0.00010852 JED
period 1551.929217114256
4.25
1.9549e-05
5.352e-08
d
yr
n .2319693424352201 2.922e-09 deg/d
Q 3.019156049006675 2.5354e-08 AU
  Orbit Determination Parameters
   # obs. used (total)      842  
   data-arc span      8284 days (22.68 yr)  
   first obs. used      1992-09-21  
   last obs. used      2015-05-28  
   planetary ephem.      DE431  
   SB-pert. ephem.      SB431-BIG16  
   condition code      0  
   fit RMS      .53956  
   data source      ORB  
   producer      Otto Matic  
   solution date      2015-Jun-04 17:04:02  

Additional Information
 Earth MOID = 1.24279 AU 
 T_jup = 3.387 
[ show covariance matrix ]

Ephemeris | Orbit Diagram | Orbital Elements | Physical Parameters | Discovery Circumstances | Close-Approach Data ]

Physical Parameter Table
Parameter Symbol Value Units Sigma Reference Notes
absolute magnitude H 14.8 mag n/a MPO267817  

31196 Yulong           Discovered 1997 Dec. 24 by the Beijing Schmidt CCD Asteroid Program in Xinglong.
Yulong ("Jade dragon") is the only Naxi-language autonomous county in China. This ethnic culture thrives in a region where the Yulong Snow Mountain remains the southernmost glacier in the northern hemisphere, enjoying the fame of the Glacial Museum and the Kingdom of Flora.
NOTE: some special characters may not display properly (any characters within {} are an attempt to place the proper accent above a character)
Reference: 20080122/MPCPages.arcLast Updated: 2008-03-05

[ show close-approach data ]
Alternate Designations
 1997 YL18 = 1992 SV17 
Ephemeris | Orbit Diagram | Orbital Elements | Physical Parameters | Discovery Circumstances | Close-Approach Data ]
ABOUT SSD CREDITS/AWARDS PRIVACY/COPYRIGHT GLOSSARY LINKS
FirstGov 2015-Jul-30 23:02 UT
(server date/time)  
NASA Home Page
Site Manager:   Ryan S. Park
Webmaster  Alan B. Chamberlin